{"data":{"norad_id":65179,"epoch":"2026-09-20T10:42:31.096800Z","epoch_age_seconds":125047,"freshness":"FRESH","line1":"1 65179U 25175F   26263.44619325  .00021591  00000+0  66865-3 0  9992","line2":"2 65179  97.2849 132.4109 0002125  82.9481 277.2003 15.33470264 62128","mean_motion":15.33470264,"eccentricity":0.0002125,"inclination_deg":97.2849,"raan_deg":132.4109,"arg_perigee_deg":82.9481,"mean_anomaly_deg":277.2003,"bstar":0.00066865,"rev_number":6212,"period_min":93.904657547373,"perigee_km":464.01374155675,"apogee_km":466.92227368498,"semimajor_km":6843.6050076209,"source":"CELESTRAK","updated_at":"2026-09-21T09:00:35.528260Z"}}